Location: ??????
(41.3164°N, 22.6615°E)
Time: 19:18:58
(UTC+00:00)

CZ-2C R/B - Pass Details

Date: 21 May 2022
Orbit: 785 x 869 km, 98.2° (Epoch: 28 June)

Event Time Altitude Azimuth Distance (km) Brightness Sun altitude
Rises 01:38:18 0° 118° (ESE) 3,268 6.0 -14.1°
Reaches altitude 10° 01:41:27 10° 98° (E) 2,348 5.6 -13.7°
Maximum altitude 01:44:31 16° 61° (ENE) 1,961 5.8 -13.2°
Drops below altitude 10° 01:47:37 10° 24° (NNE) 2,373 6.2 -12.8°
Sets 01:50:49 0° 4° (N) 3,321 6.5 -12.4°
